Regional Weather Roundup
Issued by NWS

Home | Current Version | Previous Version | Text Only | Print | Product List | Glossary On
Versions: 1 2 3 4 5 6 7 8 9 10 11 12 13 14 15 16 17 18 19 20 21 22 23 24 25 26 27 28 29 30 31 32 33 34 35 36 37 38 39 40 41 42 43 44 45 46 47 48 49 50
000
ASUS45 KREV 270210
RWRNV
NEVADA REGIONAL WEATHER ROUNDUP
NATIONAL WEATHER SERVICE RENO NV
700 PM PDT MON SEP 26 2016

NOTE: "FAIR" INDICATES FEW OR NO CLOUDS BELOW 12,000 FEET WITH NO
SIGNIFICANT WEATHER AND/OR OBSTRUCTIONS TO VISIBILITY.

NVZ001-003-004-270300-
WESTERN NEVADA

CITY           SKY/WX    TMP DP  RH WIND       PRES   REMARKS
RENO           CLEAR     80  28  15 E10       30.15S
CARSON CITY    FAIR      77  23  13 NE14      30.19R
MINDEN         FAIR      73  27  17 NW12      30.18R
PYRAMID LAKE     N/A     77 N/A N/A SW2         N/A
FALLON         PTCLDY    74  36  25 N8        30.12S
LOVELOCK       CLEAR     77  31  18 SW3       30.13S
HAWTHORNE        N/A     75  30  19 CALM      30.14S
$$

NVZ002-CAZ072-073-270300-
NORTHERN AND CENTRAL SIERRA

CITY           SKY/WX    TMP DP  RH WIND       PRES   REMARKS
S. LAKE TAHOE  CLEAR     64  32  30 CALM      30.28R
TRUCKEE        CLEAR     68  30  24 S3        30.26S
SQUAW VLY 8000 NOT AVBL
SUSANVILLE     CLEAR     79  32  18 S5        30.13
MAMMOTH LAKES  FAIR      65  17  15 E6        30.33R
BRIDGEPORT       N/A     69  21  16 W7        30.28R
$$

NVZ030-031-036-270300-
NORTHERN NEVADA

CITY           SKY/WX    TMP DP  RH WIND       PRES   REMARKS
ELKO           CLEAR     70  39  32 E5        30.23S
WINNEMUCCA     CLEAR     74  32  21 N3        30.16S
WENDOVER       CLEAR     66  41  39 W3        30.28F
$$

NVZ035-037-270300-
CENTRAL NEVADA

CITY           SKY/WX    TMP DP  RH WIND       PRES   REMARKS
ELY            CLEAR     62  35  36 N9        30.31S
EUREKA           N/A     66  32  28 CALM      30.26F
$$

NVZ013-014-270300-
SOUTH CENTRAL NEVADA

CITY           SKY/WX    TMP DP  RH WIND       PRES   REMARKS
TONOPAH        CLEAR     72  28  19 SW3       30.23S
$$

NVZ017-020-022-270300-
SOUTHERN NEVADA

CITY           SKY/WX    TMP DP  RH WIND       PRES   REMARKS
LAS VEGAS      PTCLDY    88  29  12 NW7       30.02S
N. LAS VEGAS   CLEAR     87  32  14 NE3       30.02S
NELLIS AFB     CLEAR     87  35  15 NW6       29.99F
HENDERSON      CLEAR     84  35  17 NW5       30.05F
MERCURY        CLEAR     81  28  14 SE10      30.08R
$$



USA.gov is the U.S. government's official web portal to all federal, state and local government web resources and services.